Time,TemperatureF,DewpointF,PressureIn,WindDirection,WindDirectionDegrees,WindSpeedMPH,WindSpeedGustMPH,Humidity,HourlyPrecipIn,Conditions,Clouds,dailyrainin,SoftwareType,DateUTC
2013-05-21 00:01:00,67.2,59.9,29.96,East,90,0.0,0.0,77,0.00,,,0.00,WUHU21623XXSP,2013-05-21 04:01:00,
2013-05-21 00:06:00,67.0,59.7,29.97,ENE,67,0.0,0.0,77,0.00,,,0.00,WUHU21623XXSP,2013-05-21 04:06:00,
2013-05-21 00:11:00,67.0,60.0,29.97,ENE,67,0.0,0.0,78,0.00,,,0.00,WUHU21623XXSP,2013-05-21 04:11:00,
2013-05-21 00:16:00,67.0,60.0,29.97,ENE,67,0.0,0.0,78,0.00,,,0.00,WUHU21623XXSP,2013-05-21 04:16:00,
2013-05-21 00:21:00,67.0,60.0,29.97,ENE,67,0.0,0.0,78,0.00,,,0.00,WUHU21623XXSP,2013-05-21 04:21:00,
2013-05-21 00:26:00,67.0,60.0,29.98,ENE,67,0.0,0.0,78,0.00,,,0.00,WUHU21623XXSP,2013-05-21 04:26:00,
2013-05-21 00:31:00,67.0,60.0,29.98,ENE,67,0.0,0.0,78,0.00,,,0.00,WUHU21623XXSP,2013-05-21 04:31:00,
2013-05-21 00:36:00,66.8,59.8,29.99,ENE,67,0.0,0.0,78,0.00,,,0.00,WUHU21623XXSP,2013-05-21 04:36:00,
2013-05-21 00:41:00,66.8,59.8,29.98,ENE,67,0.0,0.0,78,0.00,,,0.00,WUHU21623XXSP,2013-05-21 04:41:00,
2013-05-21 00:46:00,66.6,59.6,29.99,ENE,67,0.0,0.0,78,0.00,,,0.00,WUHU21623XXSP,2013-05-21 04:46:00,
2013-05-21 00:51:00,66.6,59.6,29.99,ENE,67,0.0,0.0,78,0.00,,,0.00,WUHU21623XXSP,2013-05-21 04:51:00,
2013-05-21 00:56:00,66.6,59.6,29.99,ENE,67,0.0,0.0,78,0.00,,,0.00,WUHU21623XXSP,2013-05-21 04:56:00,
2013-05-21 01:01:00,66.6,59.6,29.99,ENE,67,0.0,0.0,78,0.00,,,0.00,WUHU21623XXSP,2013-05-21 05:01:00,
2013-05-21 01:06:00,66.4,59.4,29.99,ENE,67,0.0,0.0,78,0.00,,,0.00,WUHU21623XXSP,2013-05-21 05:06:00,
2013-05-21 01:11:00,66.4,59.4,29.99,ENE,67,0.0,0.0,78,0.00,,,0.00,WUHU21623XXSP,2013-05-21 05:11:00,
2013-05-21 01:16:00,66.4,59.8,29.99,ENE,67,0.0,0.0,79,0.00,,,0.00,WUHU21623XXSP,2013-05-21 05:16:00,
2013-05-21 01:21:00,66.3,59.7,29.99,ENE,67,0.0,0.0,79,0.00,,,0.00,WUHU21623XXSP,2013-05-21 05:21:00,
2013-05-21 01:26:00,66.3,59.7,29.99,ENE,67,0.0,0.0,79,0.00,,,0.00,WUHU21623XXSP,2013-05-21 05:26:00,
2013-05-21 01:31:00,66.1,59.5,29.99,ENE,67,0.0,0.0,79,0.00,,,0.00,WUHU21623XXSP,2013-05-21 05:31:00,
2013-05-21 01:36:00,66.1,59.5,29.98,ENE,67,0.0,0.0,79,0.00,,,0.00,WUHU21623XXSP,2013-05-21 05:36:00,
2013-05-21 01:41:00,66.1,59.5,29.98,ENE,67,0.0,0.0,79,0.00,,,0.00,WUHU21623XXSP,2013-05-21 05:41:00,
2013-05-21 01:46:00,65.7,59.1,29.98,ENE,67,0.0,0.0,79,0.00,,,0.00,WUHU21623XXSP,2013-05-21 05:46:00,
2013-05-21 01:51:00,65.7,59.1,29.98,ENE,67,0.0,0.0,79,0.00,,,0.00,WUHU21623XXSP,2013-05-21 05:51:00,
2013-05-21 01:56:00,65.7,59.1,29.98,ENE,67,0.0,0.0,79,0.00,,,0.00,WUHU21623XXSP,2013-05-21 05:56:00,
2013-05-21 02:01:00,65.7,59.1,29.97,ENE,67,0.0,0.0,79,0.00,,,0.00,WUHU21623XXSP,2013-05-21 06:01:00,
2013-05-21 02:06:00,65.7,59.1,29.97,WNW,292,0.0,0.0,79,0.00,,,0.00,WUHU21623XXSP,2013-05-21 06:06:00,
2013-05-21 02:11:00,65.5,58.9,29.96,WNW,292,0.0,0.0,79,0.00,,,0.00,WUHU21623XXSP,2013-05-21 06:11:00,
2013-05-21 02:16:00,65.5,58.9,29.96,WNW,292,0.0,0.0,79,0.00,,,0.00,WUHU21623XXSP,2013-05-21 06:16:00,
2013-05-21 02:21:00,65.5,58.9,29.96,WNW,292,0.0,0.0,79,0.00,,,0.00,WUHU21623XXSP,2013-05-21 06:21:00,
2013-05-21 02:26:00,65.5,58.9,29.97,WNW,292,0.0,0.0,79,0.00,,,0.00,WUHU21623XXSP,2013-05-21 06:26:00,
2013-05-21 02:31:00,65.5,58.9,29.96,WNW,292,0.0,0.0,79,0.00,,,0.00,WUHU21623XXSP,2013-05-21 06:31:00,
2013-05-21 02:36:00,65.5,58.9,29.96,WNW,292,0.0,0.0,79,0.00,,,0.00,WUHU21623XXSP,2013-05-21 06:36:00,
2013-05-21 02:41:00,65.5,59.2,29.96,West,270,0.0,0.0,80,0.00,,,0.00,WUHU21623XXSP,2013-05-21 06:41:00,
2013-05-21 02:46:00,65.5,59.2,29.96,WNW,292,0.0,0.0,80,0.00,,,0.00,WUHU21623XXSP,2013-05-21 06:46:00,
2013-05-21 02:51:00,65.5,59.2,29.96,WNW,292,0.0,0.0,80,0.00,,,0.00,WUHU21623XXSP,2013-05-21 06:51:00,
2013-05-21 02:56:00,65.5,59.2,29.95,WNW,292,0.0,0.0,80,0.00,,,0.00,WUHU21623XXSP,2013-05-21 06:56:00,
2013-05-21 03:01:00,65.7,59.4,29.95,WNW,292,0.0,0.0,80,0.00,,,0.00,WUHU21623XXSP,2013-05-21 07:01:00,
2013-05-21 03:06:00,65.7,59.4,29.95,WNW,292,0.0,0.0,80,0.00,,,0.00,WUHU21623XXSP,2013-05-21 07:06:00,
2013-05-21 03:11:00,65.7,59.4,29.95,WNW,292,0.0,3.4,80,0.00,,,0.00,WUHU21623XXSP,2013-05-21 07:11:00,
2013-05-21 03:16:00,65.7,59.4,29.95,WNW,292,0.0,3.4,80,0.00,,,0.00,WUHU21623XXSP,2013-05-21 07:16:00,
2013-05-21 03:21:00,65.7,59.4,29.95,WNW,292,0.0,0.0,80,0.00,,,0.00,WUHU21623XXSP,2013-05-21 07:21:00,
2013-05-21 03:26:00,65.7,59.4,29.95,NW,315,0.0,0.0,80,0.00,,,0.00,WUHU21623XXSP,2013-05-21 07:26:00,
2013-05-21 03:31:00,65.7,59.4,29.95,NW,315,0.0,0.0,80,0.00,,,0.00,WUHU21623XXSP,2013-05-21 07:31:00,
2013-05-21 03:36:00,65.7,59.4,29.96,NW,315,0.0,0.0,80,0.00,,,0.00,WUHU21623XXSP,2013-05-21 07:36:00,
2013-05-21 03:41:00,65.7,59.4,29.95,NW,315,0.0,0.0,80,0.00,,,0.00,WUHU21623XXSP,2013-05-21 07:41:00,
2013-05-21 03:46:00,65.7,59.4,29.96,NW,315,0.0,0.0,80,0.00,,,0.00,WUHU21623XXSP,2013-05-21 07:46:00,
2013-05-21 03:51:00,65.7,59.4,29.95,NW,315,0.0,0.0,80,0.00,,,0.00,WUHU21623XXSP,2013-05-21 07:51:00,
2013-05-21 03:56:00,65.7,59.4,29.95,NW,315,0.0,0.0,80,0.00,,,0.00,WUHU21623XXSP,2013-05-21 07:56:00,
2013-05-21 04:01:00,65.7,59.8,29.95,NW,315,0.0,0.0,81,0.00,,,0.00,WUHU21623XXSP,2013-05-21 08:01:00,
2013-05-21 04:06:00,65.5,59.6,29.95,NW,315,0.0,0.0,81,0.00,,,0.00,WUHU21623XXSP,2013-05-21 08:06:00,
2013-05-21 04:11:00,65.5,59.6,29.95,NW,315,0.0,0.0,81,0.00,,,0.00,WUHU21623XXSP,2013-05-21 08:11:00,
2013-05-21 04:16:00,65.5,59.6,29.95,NW,315,0.0,0.0,81,0.00,,,0.00,WUHU21623XXSP,2013-05-21 08:16:00,
2013-05-21 04:21:00,65.4,59.5,29.95,NW,315,0.0,0.0,81,0.00,,,0.00,WUHU21623XXSP,2013-05-21 08:21:00,
2013-05-21 04:26:00,65.2,59.3,29.94,NW,315,0.0,0.0,81,0.00,,,0.00,WUHU21623XXSP,2013-05-21 08:26:00,
2013-05-21 04:31:00,65.2,58.9,29.94,NW,315,0.0,0.0,80,0.00,,,0.00,WUHU21623XXSP,2013-05-21 08:31:00,
2013-05-21 04:36:00,65.0,58.7,29.94,NW,315,0.0,0.0,80,0.00,,,0.00,WUHU21623XXSP,2013-05-21 08:36:00,
2013-05-21 04:41:00,65.0,58.7,29.95,NW,315,0.0,0.0,80,0.00,,,0.00,WUHU21623XXSP,2013-05-21 08:41:00,
2013-05-21 04:46:00,64.8,58.6,29.94,NW,315,0.0,0.0,80,0.00,,,0.00,WUHU21623XXSP,2013-05-21 08:46:00,
2013-05-21 04:51:00,64.8,58.6,29.94,NW,315,0.0,0.0,80,0.00,,,0.00,WUHU21623XXSP,2013-05-21 08:51:00,
2013-05-21 04:56:00,64.8,58.6,29.94,North,0,0.0,0.0,80,0.00,,,0.00,WUHU21623XXSP,2013-05-21 08:56:00,
2013-05-21 05:01:00,64.8,58.6,29.95,NNW,337,0.0,0.0,80,0.00,,,0.00,WUHU21623XXSP,2013-05-21 09:01:00,
2013-05-21 05:06:00,64.8,58.6,29.95,NNW,337,0.0,0.0,80,0.00,,,0.00,WUHU21623XXSP,2013-05-21 09:06:00,
2013-05-21 05:11:00,64.8,58.6,29.95,WNW,292,0.0,0.0,80,0.00,,,0.00,WUHU21623XXSP,2013-05-21 09:11:00,
2013-05-21 05:16:00,65.0,59.1,29.96,WNW,292,0.0,0.0,81,0.00,,,0.00,WUHU21623XXSP,2013-05-21 09:16:00,
2013-05-21 05:21:00,65.2,59.3,29.96,NW,315,0.0,0.0,81,0.00,,,0.00,WUHU21623XXSP,2013-05-21 09:21:00,
2013-05-21 05:26:00,65.2,59.3,29.96,NW,315,0.0,0.0,81,0.00,,,0.00,WUHU21623XXSP,2013-05-21 09:26:00,
2013-05-21 05:31:00,65.2,59.3,29.95,NW,315,0.0,0.0,81,0.00,,,0.00,WUHU21623XXSP,2013-05-21 09:31:00,
2013-05-21 05:36:00,65.4,59.5,29.96,NW,315,0.0,0.0,81,0.00,,,0.00,WUHU21623XXSP,2013-05-21 09:36:00,
2013-05-21 05:41:00,65.5,59.6,29.96,WNW,292,0.0,0.0,81,0.00,,,0.00,WUHU21623XXSP,2013-05-21 09:41:00,
2013-05-21 05:46:00,65.5,59.6,29.97,NW,315,0.0,0.0,81,0.00,,,0.00,WUHU21623XXSP,2013-05-21 09:46:00,
2013-05-21 05:51:00,65.5,59.6,29.97,WNW,292,0.0,0.0,81,0.00,,,0.00,WUHU21623XXSP,2013-05-21 09:51:00,
2013-05-21 05:56:00,65.5,59.6,29.97,NW,315,0.0,1.8,81,0.00,,,0.00,WUHU21623XXSP,2013-05-21 09:56:00,
2013-05-21 06:01:00,65.7,59.8,29.97,NW,315,0.0,1.8,81,0.00,,,0.00,WUHU21623XXSP,2013-05-21 10:01:00,
2013-05-21 06:06:00,65.7,59.8,29.97,NW,315,1.1,1.1,81,0.00,,,0.00,WUHU21623XXSP,2013-05-21 10:06:00,
2013-05-21 06:11:00,65.7,59.8,29.97,WNW,292,0.0,1.1,81,0.00,,,0.00,WUHU21623XXSP,2013-05-21 10:11:00,
2013-05-21 06:16:00,65.7,59.8,29.98,NW,315,0.0,0.0,81,0.00,,,0.00,WUHU21623XXSP,2013-05-21 10:16:00,
2013-05-21 06:21:00,66.1,60.2,29.98,NW,315,0.0,0.0,81,0.00,,,0.00,WUHU21623XXSP,2013-05-21 10:21:00,
2013-05-21 06:26:00,66.1,60.2,29.98,NW,315,0.0,0.0,81,0.00,,,0.00,WUHU21623XXSP,2013-05-21 10:26:00,
2013-05-21 06:31:00,66.1,60.2,29.98,WNW,292,0.0,0.0,81,0.00,,,0.00,WUHU21623XXSP,2013-05-21 10:31:00,
2013-05-21 06:36:00,66.1,60.2,29.98,WNW,292,0.0,0.0,81,0.00,,,0.00,WUHU21623XXSP,2013-05-21 10:36:00,
2013-05-21 06:41:00,66.3,60.4,29.98,WNW,292,0.0,0.0,81,0.00,,,0.00,WUHU21623XXSP,2013-05-21 10:41:00,
2013-05-21 06:46:00,66.3,60.4,29.99,NW,315,0.0,0.0,81,0.00,,,0.00,WUHU21623XXSP,2013-05-21 10:46:00,
2013-05-21 06:51:00,66.3,60.4,29.99,NW,315,0.0,0.0,81,0.00,,,0.00,WUHU21623XXSP,2013-05-21 10:51:00,
2013-05-21 06:56:00,66.4,60.5,29.99,NW,315,0.0,0.0,81,0.00,,,0.00,WUHU21623XXSP,2013-05-21 10:56:00,
2013-05-21 07:01:00,66.4,60.5,29.99,NW,315,0.0,0.0,81,0.00,,,0.00,WUHU21623XXSP,2013-05-21 11:01:00,
2013-05-21 07:06:00,66.4,60.5,29.99,WNW,292,0.0,0.0,81,0.00,,,0.00,WUHU21623XXSP,2013-05-21 11:06:00,
2013-05-21 07:11:00,66.4,60.5,29.99,NW,315,0.0,0.0,81,0.00,,,0.00,WUHU21623XXSP,2013-05-21 11:11:00,
2013-05-21 07:16:00,66.4,60.5,29.99,NW,315,0.0,2.0,81,0.00,,,0.00,WUHU21623XXSP,2013-05-21 11:16:00,
2013-05-21 07:21:00,66.6,60.6,29.99,NW,315,0.0,2.0,81,0.00,,,0.00,WUHU21623XXSP,2013-05-21 11:21:00,
2013-05-21 07:26:00,66.6,60.6,29.99,WNW,292,0.0,0.0,81,0.00,,,0.00,WUHU21623XXSP,2013-05-21 11:26:00,
2013-05-21 07:31:00,66.6,61.0,29.99,WNW,292,0.0,0.0,82,0.00,,,0.00,WUHU21623XXSP,2013-05-21 11:31:00,
2013-05-21 07:36:00,66.6,61.0,29.99,WNW,292,0.0,0.0,82,0.00,,,0.00,WUHU21623XXSP,2013-05-21 11:36:00,
2013-05-21 07:41:00,66.8,61.2,29.99,NW,315,0.0,0.0,82,0.00,,,0.00,WUHU21623XXSP,2013-05-21 11:41:00,
2013-05-21 07:46:00,67.0,61.4,29.99,WNW,292,0.0,1.8,82,0.00,,,0.00,WUHU21623XXSP,2013-05-21 11:46:00,
2013-05-21 07:51:00,67.0,61.4,29.99,WSW,247,0.0,1.8,82,0.00,,,0.00,WUHU21623XXSP,2013-05-21 11:51:00,
2013-05-21 07:56:00,67.3,61.7,29.98,SSE,157,0.0,0.0,82,0.00,,,0.00,WUHU21623XXSP,2013-05-21 11:56:00,
2013-05-21 08:01:00,67.3,61.7,29.98,ENE,67,0.0,0.0,82,0.00,,,0.00,WUHU21623XXSP,2013-05-21 12:01:00,
2013-05-21 08:06:00,67.5,61.9,29.99,NE,45,0.0,0.0,82,0.00,,,0.00,WUHU21623XXSP,2013-05-21 12:06:00,
2013-05-21 08:11:00,67.5,61.9,29.99,NNW,337,0.0,0.0,82,0.00,,,0.00,WUHU21623XXSP,2013-05-21 12:11:00,
2013-05-21 08:16:00,67.7,62.1,29.98,NNE,22,0.0,0.0,82,0.00,,,0.00,WUHU21623XXSP,2013-05-21 12:16:00,
2013-05-21 08:21:00,67.9,62.3,29.98,NNW,337,0.0,0.0,82,0.00,,,0.00,WUHU21623XXSP,2013-05-21 12:21:00,
2013-05-21 08:26:00,67.9,61.9,29.99,NNW,337,0.0,0.0,81,0.00,,,0.00,WUHU21623XXSP,2013-05-21 12:26:00,
2013-05-21 08:31:00,68.1,62.1,29.99,WNW,292,0.0,0.0,81,0.00,,,0.00,WUHU21623XXSP,2013-05-21 12:31:00,
2013-05-21 08:36:00,68.1,62.1,29.99,West,270,0.0,0.0,81,0.00,,,0.00,WUHU21623XXSP,2013-05-21 12:36:00,
2013-05-21 08:41:00,68.1,62.1,29.99,WNW,292,0.0,0.0,81,0.00,,,0.00,WUHU21623XXSP,2013-05-21 12:41:00,
2013-05-21 08:46:00,68.1,62.1,29.98,WNW,292,0.0,0.0,81,0.00,,,0.00,WUHU21623XXSP,2013-05-21 12:46:00,
2013-05-21 08:51:00,68.2,62.2,29.99,West,270,0.0,1.8,81,0.00,,,0.00,WUHU21623XXSP,2013-05-21 12:51:00,
2013-05-21 08:56:00,68.2,62.2,29.99,WNW,292,1.0,1.8,81,0.00,,,0.00,WUHU21623XXSP,2013-05-21 12:56:00,
2013-05-21 09:01:00,68.2,62.2,30.00,NW,315,0.0,1.8,81,0.00,,,0.00,WUHU21623XXSP,2013-05-21 13:01:00,
2013-05-21 09:06:00,68.2,62.2,29.99,WNW,292,0.0,0.0,81,0.00,,,0.00,WUHU21623XXSP,2013-05-21 13:06:00,
2013-05-21 09:11:00,68.4,62.4,29.99,WNW,292,0.0,0.0,81,0.00,,,0.00,WUHU21623XXSP,2013-05-21 13:11:00,
2013-05-21 09:16:00,68.4,62.4,29.99,NW,315,0.0,0.0,81,0.00,,,0.00,WUHU21623XXSP,2013-05-21 13:16:00,
2013-05-21 09:21:00,68.4,62.4,29.98,West,270,0.0,0.0,81,0.00,,,0.00,WUHU21623XXSP,2013-05-21 13:21:00,
2013-05-21 09:26:00,68.6,62.6,29.98,SE,135,0.0,0.0,81,0.00,,,0.00,WUHU21623XXSP,2013-05-21 13:26:00,
2013-05-21 09:31:00,68.8,62.8,29.98,SE,135,0.0,0.0,81,0.00,,,0.00,WUHU21623XXSP,2013-05-21 13:31:00,
2013-05-21 09:36:00,68.8,62.8,29.97,NW,315,0.0,3.6,81,0.00,,,0.00,WUHU21623XXSP,2013-05-21 13:36:00,
2013-05-21 09:41:00,69.1,63.1,29.97,NW,315,0.0,3.6,81,0.00,,,0.00,WUHU21623XXSP,2013-05-21 13:41:00,
2013-05-21 09:46:00,69.3,63.3,29.98,NW,315,0.0,1.1,81,0.00,,,0.00,WUHU21623XXSP,2013-05-21 13:46:00,
2013-05-21 09:51:00,69.7,63.7,29.98,WNW,295,3.0,6.5,81,0.00,,,0.00,WUHU21623XXSP,2013-05-21 13:51:00,
2013-05-21 09:56:00,69.7,63.7,29.98,NW,315,2.0,6.5,81,0.00,,,0.00,WUHU21623XXSP,2013-05-21 13:56:00,
2013-05-21 10:01:00,69.9,63.5,29.98,WNW,292,1.1,4.3,80,0.00,,,0.00,WUHU21623XXSP,2013-05-21 14:01:00,
2013-05-21 10:06:00,70.0,63.6,29.98,WNW,292,0.0,4.3,80,0.00,,,0.00,WUHU21623XXSP,2013-05-21 14:06:00,
2013-05-21 10:11:00,70.0,63.6,29.98,WNW,292,0.0,1.8,80,0.00,,,0.00,WUHU21623XXSP,2013-05-21 14:11:00,
2013-05-21 10:16:00,70.2,63.8,29.98,WNW,292,0.0,0.0,80,0.00,,,0.00,WUHU21623XXSP,2013-05-21 14:16:00,
2013-05-21 10:21:00,70.2,63.8,29.98,NW,311,2.7,4.5,80,0.00,,,0.00,WUHU21623XXSP,2013-05-21 14:21:00,
2013-05-21 10:26:00,70.4,64.0,29.98,NW,315,0.0,4.5,80,0.00,,,0.00,WUHU21623XXSP,2013-05-21 14:26:00,
2013-05-21 10:31:00,70.6,64.2,29.98,NNW,337,0.0,0.0,80,0.00,,,0.00,WUHU21623XXSP,2013-05-21 14:31:00,
2013-05-21 10:36:00,70.8,64.4,29.98,WNW,292,0.0,0.0,80,0.00,,,0.00,WUHU21623XXSP,2013-05-21 14:36:00,
2013-05-21 10:41:00,70.8,64.4,29.98,WNW,301,1.5,4.3,80,0.00,,,0.00,WUHU21623XXSP,2013-05-21 14:41:00,
2013-05-21 10:46:00,70.9,64.5,29.98,WNW,292,0.0,4.3,80,0.00,,,0.00,WUHU21623XXSP,2013-05-21 14:46:00,
2013-05-21 10:51:00,70.9,64.5,29.98,NW,315,0.0,2.9,80,0.00,,,0.00,WUHU21623XXSP,2013-05-21 14:51:00,
2013-05-21 10:56:00,70.8,64.4,29.98,NW,315,0.0,4.0,80,0.00,,,0.00,WUHU21623XXSP,2013-05-21 14:56:00,
2013-05-21 11:01:00,70.9,64.5,29.98,WNW,296,2.0,4.3,80,0.00,,,0.00,WUHU21623XXSP,2013-05-21 15:01:00,
2013-05-21 11:06:00,70.8,64.4,29.98,North,0,0.0,4.3,80,0.00,,,0.00,WUHU21623XXSP,2013-05-21 15:06:00,
2013-05-21 11:11:00,70.9,64.5,29.98,NNW,337,0.0,0.0,80,0.00,,,0.00,WUHU21623XXSP,2013-05-21 15:11:00,
2013-05-21 11:16:00,70.9,64.5,29.98,WNW,292,0.0,0.0,80,0.00,,,0.00,WUHU21623XXSP,2013-05-21 15:16:00,
2013-05-21 11:21:00,70.9,64.5,29.98,ENE,67,0.0,0.0,80,0.00,,,0.00,WUHU21623XXSP,2013-05-21 15:21:00,
2013-05-21 11:26:00,70.9,64.2,29.98,NNW,337,0.0,0.0,79,0.00,,,0.00,WUHU21623XXSP,2013-05-21 15:26:00,
2013-05-21 11:31:00,70.9,64.2,29.98,NNE,22,0.0,0.9,79,0.00,,,0.00,WUHU21623XXSP,2013-05-21 15:31:00,
2013-05-21 11:36:00,71.1,64.4,29.98,West,270,0.0,0.9,79,0.00,,,0.00,WUHU21623XXSP,2013-05-21 15:36:00,
2013-05-21 11:41:00,70.9,64.2,29.98,NW,315,1.8,1.8,79,0.00,,,0.00,WUHU21623XXSP,2013-05-21 15:41:00,
2013-05-21 11:46:00,71.1,64.4,29.98,West,270,0.0,1.8,79,0.00,,,0.00,WUHU21623XXSP,2013-05-21 15:46:00,
2013-05-21 11:51:00,70.9,64.2,29.98,West,270,0.0,0.0,79,0.00,,,0.00,WUHU21623XXSP,2013-05-21 15:51:00,
2013-05-21 11:56:00,70.9,64.2,29.97,SW,225,0.0,0.0,79,0.00,,,0.00,WUHU21623XXSP,2013-05-21 15:56:00,
2013-05-21 12:01:00,71.1,64.4,29.97,WNW,292,0.0,2.0,79,0.00,,,0.00,WUHU21623XXSP,2013-05-21 16:01:00,
2013-05-21 12:06:00,71.3,64.5,29.98,WNW,292,0.0,2.0,79,0.00,,,0.00,WUHU21623XXSP,2013-05-21 16:06:00,
2013-05-21 12:11:00,71.5,64.7,29.97,NW,315,0.0,0.0,79,0.00,,,0.00,WUHU21623XXSP,2013-05-21 16:11:00,
2013-05-21 12:16:00,71.8,65.0,29.97,WNW,292,0.0,0.0,79,0.00,,,0.00,WUHU21623XXSP,2013-05-21 16:16:00,
2013-05-21 12:21:00,72.2,65.1,29.97,South,180,0.0,0.0,78,0.00,,,0.00,WUHU21623XXSP,2013-05-21 16:21:00,
2013-05-21 12:26:00,72.6,65.5,29.96,SE,135,0.0,0.0,78,0.00,,,0.00,WUHU21623XXSP,2013-05-21 16:26:00,
2013-05-21 12:31:00,72.9,65.8,29.96,SSE,157,0.0,0.0,78,0.00,,,0.00,WUHU21623XXSP,2013-05-21 16:31:00,
2013-05-21 12:36:00,72.9,65.8,29.97,NW,315,1.6,3.1,78,0.00,,,0.00,WUHU21623XXSP,2013-05-21 16:36:00,
2013-05-21 12:41:00,73.3,66.1,29.97,West,270,0.0,3.1,78,0.00,,,0.00,WUHU21623XXSP,2013-05-21 16:41:00,
2013-05-21 12:46:00,73.5,66.3,29.97,NW,312,3.0,5.8,78,0.00,,,0.00,WUHU21623XXSP,2013-05-21 16:46:00,
2013-05-21 12:51:00,73.6,66.1,29.97,WNW,292,0.0,5.8,77,0.00,,,0.00,WUHU21623XXSP,2013-05-21 16:51:00,
2013-05-21 12:56:00,73.6,66.1,29.97,WNW,292,0.0,2.7,77,0.00,,,0.00,WUHU21623XXSP,2013-05-21 16:56:00,
2013-05-21 13:01:00,73.6,66.1,29.97,WNW,292,0.0,0.9,77,0.00,,,0.00,WUHU21623XXSP,2013-05-21 17:01:00,
2013-05-21 13:06:00,73.8,66.3,29.96,WNW,294,4.3,7.8,77,0.00,,,0.00,WUHU21623XXSP,2013-05-21 17:06:00,
2013-05-21 13:11:00,73.8,66.3,29.96,WNW,292,0.0,7.8,77,0.00,,,0.00,WUHU21623XXSP,2013-05-21 17:11:00,
2013-05-21 13:16:00,73.8,66.3,29.96,WNW,292,0.0,0.0,77,0.00,,,0.00,WUHU21623XXSP,2013-05-21 17:16:00,
2013-05-21 13:21:00,74.2,66.7,29.96,South,180,0.0,0.0,77,0.00,,,0.00,WUHU21623XXSP,2013-05-21 17:21:00,
2013-05-21 13:26:00,74.2,66.7,29.96,WNW,292,0.2,0.2,77,0.00,,,0.00,WUHU21623XXSP,2013-05-21 17:26:00,
2013-05-21 13:31:00,74.5,66.9,29.96,SE,135,0.0,0.2,77,0.00,,,0.00,WUHU21623XXSP,2013-05-21 17:31:00,
2013-05-21 13:36:00,74.7,67.1,29.95,NNW,337,0.0,0.0,77,0.00,,,0.00,WUHU21623XXSP,2013-05-21 17:36:00,
2013-05-21 13:41:00,74.7,67.1,29.95,East,90,0.0,0.0,77,0.00,,,0.00,WUHU21623XXSP,2013-05-21 17:41:00,
2013-05-21 13:46:00,75.1,67.5,29.95,ESE,112,0.0,0.0,77,0.00,,,0.00,WUHU21623XXSP,2013-05-21 17:46:00,
2013-05-21 13:51:00,75.4,67.8,29.94,ESE,112,0.0,0.0,77,0.00,,,0.00,WUHU21623XXSP,2013-05-21 17:51:00,
2013-05-21 13:56:00,75.8,68.2,29.94,SE,135,0.0,0.0,77,0.00,,,0.00,WUHU21623XXSP,2013-05-21 17:56:00,
2013-05-21 14:01:00,76.3,68.3,29.94,ENE,67,0.0,0.0,76,0.00,,,0.00,WUHU21623XXSP,2013-05-21 18:01:00,
2013-05-21 14:06:00,76.9,68.9,29.94,WNW,292,2.6,3.6,76,0.00,,,0.00,WUHU21623XXSP,2013-05-21 18:06:00,
2013-05-21 14:11:00,77.1,68.7,29.94,NNW,337,0.0,3.6,75,0.00,,,0.00,WUHU21623XXSP,2013-05-21 18:11:00,
2013-05-21 14:16:00,77.2,68.8,29.94,WNW,292,2.5,4.9,75,0.00,,,0.00,WUHU21623XXSP,2013-05-21 18:16:00,
2013-05-21 14:21:00,77.4,69.0,29.94,WNW,292,0.0,4.9,75,0.00,,,0.00,WUHU21623XXSP,2013-05-21 18:21:00,
2013-05-21 14:26:00,77.4,68.6,29.93,SSE,157,2.9,2.9,74,0.00,,,0.00,WUHU21623XXSP,2013-05-21 18:26:00,
2013-05-21 14:31:00,77.8,69.0,29.94,NNW,327,2.2,3.4,74,0.00,,,0.00,WUHU21623XXSP,2013-05-21 18:31:00,
2013-05-21 14:36:00,78.1,69.3,29.94,WNW,292,1.3,3.4,74,0.00,,,0.00,WUHU21623XXSP,2013-05-21 18:36:00,
2013-05-21 14:41:00,78.3,69.1,29.94,SSE,157,1.5,3.4,73,0.00,,,0.00,WUHU21623XXSP,2013-05-21 18:41:00,
2013-05-21 14:46:00,78.9,69.7,29.95,WNW,300,1.3,3.4,73,0.00,,,0.00,WUHU21623XXSP,2013-05-21 18:46:00,
2013-05-21 14:51:00,79.2,69.6,29.94,NNW,337,2.9,2.9,72,0.00,,,0.00,WUHU21623XXSP,2013-05-21 18:51:00,
2013-05-21 14:56:00,79.8,70.2,29.94,WNW,292,3.4,3.4,72,0.00,,,0.00,WUHU21623XXSP,2013-05-21 18:56:00,
2013-05-21 15:01:00,80.3,70.3,29.94,SSE,147,3.6,6.0,71,0.00,,,0.00,WUHU21623XXSP,2013-05-21 19:01:00,
2013-05-21 15:06:00,80.7,70.6,29.94,NW,307,2.9,6.0,71,0.00,,,0.00,WUHU21623XXSP,2013-05-21 19:06:00,
2013-05-21 15:11:00,80.8,70.3,29.93,NW,315,0.9,5.1,70,0.00,,,0.00,WUHU21623XXSP,2013-05-21 19:11:00,
2013-05-21 15:16:00,80.8,70.3,29.92,SSE,150,4.8,6.9,70,0.00,,,0.00,WUHU21623XXSP,2013-05-21 19:16:00,
2013-05-21 15:21:00,80.8,70.3,29.92,SSE,150,2.8,6.9,70,0.00,,,0.00,WUHU21623XXSP,2013-05-21 19:21:00,
2013-05-21 15:26:00,81.0,70.5,29.92,SSE,167,3.9,7.4,70,0.00,,,0.00,WUHU21623XXSP,2013-05-21 19:26:00,
2013-05-21 15:31:00,80.8,69.9,29.92,South,180,0.0,7.4,69,0.00,,,0.00,WUHU21623XXSP,2013-05-21 19:31:00,
2013-05-21 15:36:00,81.0,70.1,29.91,SSE,164,3.8,7.6,69,0.00,,,0.00,WUHU21623XXSP,2013-05-21 19:36:00,
2013-05-21 15:41:00,81.2,69.9,29.92,SSE,157,2.5,7.6,68,0.00,,,0.00,WUHU21623XXSP,2013-05-21 19:41:00,
2013-05-21 15:46:00,81.4,70.1,29.91,WNW,292,0.0,3.1,68,0.00,,,0.00,WUHU21623XXSP,2013-05-21 19:46:00,
2013-05-21 15:51:00,81.4,70.1,29.91,WNW,292,0.0,0.0,68,0.00,,,0.00,WUHU21623XXSP,2013-05-21 19:51:00,
2013-05-21 15:56:00,81.4,70.1,29.91,SSE,149,2.7,5.1,68,0.00,,,0.00,WUHU21623XXSP,2013-05-21 19:56:00,
2013-05-21 16:01:00,81.2,69.9,29.91,East,90,4.9,6.5,68,0.00,,,0.00,WUHU21623XXSP,2013-05-21 20:01:00,
2013-05-21 16:06:00,81.0,69.7,29.91,SE,135,2.8,6.5,68,0.00,,,0.00,WUHU21623XXSP,2013-05-21 20:06:00,
2013-05-21 16:11:00,80.8,69.5,29.91,SE,142,4.2,7.8,68,0.00,,,0.00,WUHU21623XXSP,2013-05-21 20:11:00,
2013-05-21 16:16:00,80.7,69.4,29.90,ESE,120,4.6,7.8,68,0.00,,,0.00,WUHU21623XXSP,2013-05-21 20:16:00,
2013-05-21 16:21:00,80.5,69.2,29.91,ESE,110,2.7,7.4,68,0.00,,,0.00,WUHU21623XXSP,2013-05-21 20:21:00,
2013-05-21 16:26:00,80.5,69.2,29.90,East,90,2.8,5.4,68,0.00,,,0.00,WUHU21623XXSP,2013-05-21 20:26:00,
2013-05-21 16:31:00,80.5,69.2,29.90,SE,142,3.5,5.1,68,0.00,,,0.00,WUHU21623XXSP,2013-05-21 20:31:00,
2013-05-21 16:36:00,80.5,69.2,29.89,SE,142,2.8,6.9,68,0.00,,,0.00,WUHU21623XXSP,2013-05-21 20:36:00,
2013-05-21 16:41:00,80.8,69.5,29.89,ESE,112,4.5,6.9,68,0.00,,,0.00,WUHU21623XXSP,2013-05-21 20:41:00,
2013-05-21 16:46:00,81.0,69.3,29.89,SSE,147,3.9,6.3,67,0.00,,,0.00,WUHU21623XXSP,2013-05-21 20:46:00,
2013-05-21 16:51:00,81.4,69.6,29.89,SSE,157,0.9,6.3,67,0.00,,,0.00,WUHU21623XXSP,2013-05-21 20:51:00,
2013-05-21 16:56:00,82.3,70.1,29.89,SSE,160,2.3,7.4,66,0.00,,,0.00,WUHU21623XXSP,2013-05-21 20:56:00,
2013-05-21 17:01:00,83.7,70.9,29.89,ESE,112,0.9,7.4,65,0.00,,,0.00,WUHU21623XXSP,2013-05-21 21:01:00,
2013-05-21 17:06:00,84.6,71.4,29.89,ESE,112,0.0,2.2,64,0.00,,,0.00,WUHU21623XXSP,2013-05-21 21:06:00,
2013-05-21 17:11:00,85.5,71.7,29.89,SE,135,2.0,4.0,63,0.00,,,0.00,WUHU21623XXSP,2013-05-21 21:11:00,
2013-05-21 17:16:00,86.8,72.5,29.90,SSE,156,3.6,7.2,62,0.00,,,0.00,WUHU21623XXSP,2013-05-21 21:16:00,
2013-05-21 17:21:00,87.9,72.6,29.90,SSE,157,3.8,7.2,60,0.00,,,0.00,WUHU21623XXSP,2013-05-21 21:21:00,
2013-05-21 17:26:00,88.4,72.5,29.89,South,180,1.6,6.5,59,0.00,,,0.00,WUHU21623XXSP,2013-05-21 21:26:00,
2013-05-21 17:31:00,88.8,72.4,29.89,ESE,120,0.6,5.8,58,0.00,,,0.00,WUHU21623XXSP,2013-05-21 21:31:00,
2013-05-21 17:36:00,88.6,72.2,29.89,SE,135,0.0,2.5,58,0.00,,,0.00,WUHU21623XXSP,2013-05-21 21:36:00,
2013-05-21 17:41:00,88.6,72.2,29.89,ESE,118,1.7,5.1,58,0.00,,,0.00,WUHU21623XXSP,2013-05-21 21:41:00,
2013-05-21 17:46:00,88.2,71.3,29.89,South,180,0.0,5.1,57,0.00,,,0.00,WUHU21623XXSP,2013-05-21 21:46:00,
2013-05-21 17:51:00,87.3,71.0,29.88,SE,135,0.7,5.6,58,0.00,,,0.00,WUHU21623XXSP,2013-05-21 21:51:00,
2013-05-21 17:56:00,86.6,70.3,29.88,SE,135,0.0,5.6,58,0.00,,,0.00,WUHU21623XXSP,2013-05-21 21:56:00,
2013-05-21 18:01:00,86.1,69.9,29.89,SSW,202,5.1,5.1,58,0.00,,,0.00,WUHU21623XXSP,2013-05-21 22:01:00,
2013-05-21 18:06:00,85.5,69.3,29.88,SW,225,0.0,6.0,58,0.00,,,0.00,WUHU21623XXSP,2013-05-21 22:06:00,
2013-05-21 18:11:00,85.2,69.0,29.88,SE,146,1.6,6.5,58,0.00,,,0.00,WUHU21623XXSP,2013-05-21 22:11:00,
2013-05-21 18:16:00,84.6,68.4,29.88,SSE,150,2.6,6.5,58,0.00,,,0.00,WUHU21623XXSP,2013-05-21 22:16:00,
2013-05-21 18:21:00,84.1,68.5,29.88,SSE,157,0.0,7.4,59,0.00,,,0.00,WUHU21623XXSP,2013-05-21 22:21:00,
2013-05-21 18:26:00,83.4,67.8,29.88,South,180,0.0,7.4,59,0.00,,,0.00,WUHU21623XXSP,2013-05-21 22:26:00,
2013-05-21 18:31:00,82.6,67.1,29.88,SSW,202,0.0,3.8,59,0.00,,,0.00,WUHU21623XXSP,2013-05-21 22:31:00,
2013-05-21 18:36:00,81.9,66.9,29.88,SSE,157,5.3,6.9,60,0.00,,,0.00,WUHU21623XXSP,2013-05-21 22:36:00,
2013-05-21 18:41:00,81.2,66.2,29.88,SSE,157,0.0,6.9,60,0.00,,,0.00,WUHU21623XXSP,2013-05-21 22:41:00,
2013-05-21 18:46:00,80.5,66.1,29.88,SE,135,0.0,4.9,61,0.00,,,0.00,WUHU21623XXSP,2013-05-21 22:46:00,
2013-05-21 18:51:00,79.9,65.5,29.88,SE,135,0.0,3.8,61,0.00,,,0.00,WUHU21623XXSP,2013-05-21 22:51:00,
2013-05-21 18:56:00,79.4,65.5,29.88,SE,129,3.0,4.3,62,0.00,,,0.00,WUHU21623XXSP,2013-05-21 22:56:00,
2013-05-21 19:01:00,78.9,65.0,29.88,ESE,112,0.0,4.3,62,0.00,,,0.00,WUHU21623XXSP,2013-05-21 23:01:00,
2013-05-21 19:06:00,78.3,64.4,29.88,SE,135,0.0,2.7,62,0.00,,,0.00,WUHU21623XXSP,2013-05-21 23:06:00,
2013-05-21 19:11:00,78.0,64.6,29.88,SE,135,0.0,1.3,63,0.00,,,0.00,WUHU21623XXSP,2013-05-21 23:11:00,
2013-05-21 19:16:00,77.6,64.2,29.88,ESE,112,0.0,0.0,63,0.00,,,0.00,WUHU21623XXSP,2013-05-21 23:16:00,
2013-05-21 19:21:00,77.2,64.3,29.88,ESE,112,0.0,0.0,64,0.00,,,0.00,WUHU21623XXSP,2013-05-21 23:21:00,
2013-05-21 19:26:00,76.9,64.0,29.88,SSE,157,0.0,0.0,64,0.00,,,0.00,WUHU21623XXSP,2013-05-21 23:26:00,
2013-05-21 19:31:00,76.5,63.6,29.88,South,180,0.0,0.0,64,0.00,,,0.00,WUHU21623XXSP,2013-05-21 23:31:00,
2013-05-21 19:36:00,76.5,63.6,29.88,SE,135,0.0,0.0,64,0.00,,,0.00,WUHU21623XXSP,2013-05-21 23:36:00,
2013-05-21 19:41:00,76.0,63.6,29.88,SE,135,0.0,0.0,65,0.00,,,0.00,WUHU21623XXSP,2013-05-21 23:41:00,
2013-05-21 19:46:00,75.8,63.4,29.88,SE,135,0.0,0.0,65,0.00,,,0.00,WUHU21623XXSP,2013-05-21 23:46:00,
2013-05-21 19:51:00,75.6,63.7,29.87,SSE,157,0.0,0.0,66,0.00,,,0.00,WUHU21623XXSP,2013-05-21 23:51:00,
2013-05-21 19:56:00,75.4,63.5,29.87,SSE,157,0.0,0.0,66,0.00,,,0.00,WUHU21623XXSP,2013-05-21 23:56:00,
2013-05-21 20:01:00,75.1,63.2,29.87,SW,225,0.0,0.0,66,0.00,,,0.00,WUHU21623XXSP,2013-05-22 00:01:00,
2013-05-21 20:06:00,74.7,63.2,29.87,SSE,157,0.0,0.0,67,0.00,,,0.00,WUHU21623XXSP,2013-05-22 00:06:00,
2013-05-21 20:11:00,74.5,63.0,29.87,South,180,0.0,0.0,67,0.00,,,0.00,WUHU21623XXSP,2013-05-22 00:11:00,
2013-05-21 20:16:00,74.4,62.9,29.87,SE,135,0.0,0.0,67,0.00,,,0.00,WUHU21623XXSP,2013-05-22 00:16:00,
2013-05-21 20:21:00,74.0,63.0,29.87,SSE,157,0.0,0.0,68,0.00,,,0.00,WUHU21623XXSP,2013-05-22 00:21:00,
2013-05-21 20:26:00,73.8,62.8,29.87,SSE,157,0.0,0.0,68,0.00,,,0.00,WUHU21623XXSP,2013-05-22 00:26:00,
2013-05-21 20:31:00,73.6,62.6,29.87,SSE,157,0.0,0.0,68,0.00,,,0.00,WUHU21623XXSP,2013-05-22 00:31:00,
2013-05-21 20:36:00,73.3,62.3,29.88,SSE,157,0.0,0.0,68,0.00,,,0.00,WUHU21623XXSP,2013-05-22 00:36:00,
2013-05-21 20:41:00,73.1,62.1,29.88,SSE,157,0.0,0.0,68,0.00,,,0.00,WUHU21623XXSP,2013-05-22 00:41:00,
2013-05-21 20:46:00,72.9,62.3,29.88,SSE,157,0.0,0.0,69,0.00,,,0.00,WUHU21623XXSP,2013-05-22 00:46:00,
2013-05-21 20:51:00,72.7,62.1,29.87,SSE,157,0.0,0.0,69,0.00,,,0.00,WUHU21623XXSP,2013-05-22 00:51:00,
2013-05-21 20:56:00,72.6,62.0,29.87,SSE,157,0.0,0.0,69,0.00,,,0.00,WUHU21623XXSP,2013-05-22 00:56:00,
2013-05-21 21:01:00,72.4,62.2,29.87,SSE,157,0.0,0.0,70,0.00,,,0.00,WUHU21623XXSP,2013-05-22 01:01:00,
2013-05-21 21:06:00,72.0,61.9,29.88,ESE,112,0.0,0.0,70,0.00,,,0.00,WUHU21623XXSP,2013-05-22 01:06:00,
2013-05-21 21:11:00,72.0,61.9,29.88,SSE,157,0.0,0.0,70,0.00,,,0.00,WUHU21623XXSP,2013-05-22 01:11:00,
2013-05-21 21:16:00,71.8,61.7,29.88,SSE,157,0.0,0.0,70,0.00,,,0.00,WUHU21623XXSP,2013-05-22 01:16:00,
2013-05-21 21:21:00,71.7,61.6,29.88,SSE,157,0.0,0.0,70,0.00,,,0.00,WUHU21623XXSP,2013-05-22 01:21:00,
2013-05-21 21:26:00,71.5,61.8,29.88,SSE,157,0.0,0.0,71,0.00,,,0.00,WUHU21623XXSP,2013-05-22 01:26:00,
2013-05-21 21:31:00,71.1,61.4,29.88,SSE,157,0.0,0.0,71,0.00,,,0.00,WUHU21623XXSP,2013-05-22 01:31:00,
2013-05-21 21:36:00,71.1,61.4,29.88,SSE,157,0.0,0.0,71,0.00,,,0.00,WUHU21623XXSP,2013-05-22 01:36:00,
2013-05-21 21:41:00,70.9,61.6,29.88,SSE,157,0.0,0.0,72,0.00,,,0.00,WUHU21623XXSP,2013-05-22 01:41:00,
2013-05-21 21:46:00,70.9,61.6,29.88,SSE,157,0.0,0.0,72,0.00,,,0.00,WUHU21623XXSP,2013-05-22 01:46:00,
2013-05-21 21:51:00,70.6,61.3,29.88,SSE,157,0.0,0.0,72,0.00,,,0.00,WUHU21623XXSP,2013-05-22 01:51:00,
2013-05-21 21:56:00,70.4,61.1,29.88,SSE,157,0.0,0.0,72,0.00,,,0.00,WUHU21623XXSP,2013-05-22 01:56:00,
2013-05-21 22:01:00,70.2,61.3,29.88,SSE,157,0.0,0.0,73,0.00,,,0.00,WUHU21623XXSP,2013-05-22 02:01:00,
2013-05-21 22:06:00,70.2,61.3,29.88,SSE,157,0.0,0.0,73,0.00,,,0.00,WUHU21623XXSP,2013-05-22 02:06:00,
2013-05-21 22:11:00,70.0,61.1,29.88,SSE,157,0.0,0.0,73,0.00,,,0.00,WUHU21623XXSP,2013-05-22 02:11:00,
2013-05-21 22:16:00,69.9,61.0,29.88,SSE,157,0.0,0.0,73,0.00,,,0.00,WUHU21623XXSP,2013-05-22 02:16:00,
2013-05-21 22:21:00,69.7,60.8,29.88,SSE,157,0.0,0.0,73,0.00,,,0.00,WUHU21623XXSP,2013-05-22 02:21:00,
2013-05-21 22:26:00,69.7,60.8,29.88,SSE,157,0.0,0.0,73,0.00,,,0.00,WUHU21623XXSP,2013-05-22 02:26:00,
2013-05-21 22:31:00,69.3,60.4,29.88,SSE,157,0.0,0.0,73,0.00,,,0.00,WUHU21623XXSP,2013-05-22 02:31:00,
2013-05-21 22:36:00,69.3,60.8,29.88,SSE,157,0.0,0.0,74,0.00,,,0.00,WUHU21623XXSP,2013-05-22 02:36:00,
2013-05-21 22:41:00,69.3,60.8,29.88,SSE,157,0.0,0.0,74,0.00,,,0.00,WUHU21623XXSP,2013-05-22 02:41:00,
2013-05-21 22:46:00,69.1,60.6,29.88,SSE,157,0.0,0.0,74,0.00,,,0.00,WUHU21623XXSP,2013-05-22 02:46:00,
2013-05-21 22:51:00,69.1,60.6,29.88,SSE,157,0.0,0.0,74,0.00,,,0.00,WUHU21623XXSP,2013-05-22 02:51:00,
2013-05-21 22:56:00,69.0,60.5,29.88,SSE,157,0.0,0.0,74,0.00,,,0.00,WUHU21623XXSP,2013-05-22 02:56:00,
2013-05-21 23:01:00,68.8,60.7,29.88,SSE,157,0.0,0.0,75,0.00,,,0.00,WUHU21623XXSP,2013-05-22 03:01:00,
2013-05-21 23:06:00,68.8,60.7,29.88,SSE,157,0.0,0.0,75,0.00,,,0.00,WUHU21623XXSP,2013-05-22 03:06:00,
2013-05-21 23:11:00,68.8,60.7,29.88,SSE,157,0.0,0.0,75,0.00,,,0.00,WUHU21623XXSP,2013-05-22 03:11:00,
2013-05-21 23:16:00,68.6,60.5,29.88,SSE,157,0.0,0.0,75,0.00,,,0.00,WUHU21623XXSP,2013-05-22 03:16:00,
2013-05-21 23:21:00,68.4,60.3,29.88,SSE,157,0.0,0.0,75,0.00,,,0.00,WUHU21623XXSP,2013-05-22 03:21:00,
2013-05-21 23:26:00,68.4,60.3,29.88,SSE,157,0.0,0.0,75,0.00,,,0.00,WUHU21623XXSP,2013-05-22 03:26:00,
2013-05-21 23:31:00,68.2,60.1,29.88,SSE,157,0.0,0.0,75,0.00,,,0.00,WUHU21623XXSP,2013-05-22 03:31:00,
2013-05-21 23:36:00,68.2,60.1,29.88,SSE,157,0.0,0.0,75,0.00,,,0.00,WUHU21623XXSP,2013-05-22 03:36:00,
2013-05-21 23:41:00,68.1,60.0,29.88,SSE,157,0.0,0.0,75,0.00,,,0.00,WUHU21623XXSP,2013-05-22 03:41:00,
2013-05-21 23:46:00,67.9,59.8,29.88,SSE,157,0.0,0.0,75,0.00,,,0.00,WUHU21623XXSP,2013-05-22 03:46:00,
2013-05-21 23:51:00,67.9,60.2,29.88,SSE,157,0.0,0.0,76,0.00,,,0.00,WUHU21623XXSP,2013-05-22 03:51:00,
2013-05-21 23:56:00,67.7,60.0,29.88,SSE,157,0.0,0.0,76,0.00,,,0.00,WUHU21623XXSP,2013-05-22 03:56:00,